Location: Weatherford
(35.5260°N, 98.7070°W)
Time: 12:06:46
(UTC-06:00)

Amateur Radio Satellites - All Passes

Search period start: 01 March 2017 11:36
Search period end: 02 March 2017 11:36
Location: Weatherford, 35.5260°N, 98.7070°W

Satellite Date Start Highest point End Downlink Frequencies (MHz)
Time Altitude Azimuth
BUGSAT 1 01 Mar 11:37:25 11:40:36 22° 70° (ENE) 11:43:50 437.445
ESTCUBE 1 01 Mar 11:51:09 11:55:35 59° 101° (E) 11:59:58 437.505/2401.250
AIST 2D 01 Mar 11:56:08 11:59:03 24° 264° (W) 12:01:59 435.315
VELOX 1 01 Mar 11:57:28 12:00:44 20° 95° (E) 12:04:00 145.980
Oscar 19 01 Mar 12:01:00 12:03:46 15° 64° (ENE) 12:06:31 437.125/150
LO-87 01 Mar 12:04:30 12:07:47 33° 286° (WNW) 12:11:03 145.935 - 145.965
AO-85 01 Mar 12:07:55 12:11:18 27° 54° (NE) 12:14:45 145.980
50 SAT 01 Mar 12:14:09 12:16:30 17° 95° (E) 12:18:50 437.505
YUBILEINY 01 Mar 12:14:31 12:21:03 23° 291° (WNW) 12:27:36 435.215
DUCHIFAT 1 01 Mar 12:34:24 12:37:42 22° 264° (W) 12:41:02 145.980
EO-79 01 Mar 12:52:35 12:54:12 12° 268° (W) 12:55:48 145.935-145.965
SPROUT 01 Mar 13:06:06 13:10:24 74° 285° (WNW) 13:14:41 437.525
ISS 01 Mar 13:06:54 13:09:53 31° 35° (NE) 13:12:51 437.550
DX 1 01 Mar 13:09:04 13:13:23 56° 101° (E) 13:17:40 434.975-435.025
UKube-1 01 Mar 13:11:57 13:16:02 41° 99° (E) 13:20:07 .
BUGSAT 1 01 Mar 13:12:34 13:15:50 23° 264° (W) 13:19:09 437.445
Gurwin Techsat 1B 01 Mar 13:20:14 13:25:19 49° 72° (ENE) 13:30:25 435.225
Tancredo 1 01 Mar 13:20:46 13:23:53 44° 38° (NE) 13:26:58 437.200
ESTCUBE 1 01 Mar 13:30:19 13:31:50 12° 295° (WNW) 13:33:21 437.505/2401.250
VELOX 1 01 Mar 13:33:18 13:37:10 31° 289° (WNW) 13:41:03 145.980
AO-7 01 Mar 13:34:04 13:39:29 19° 55° (NE) 13:44:53 .
Oscar 19 01 Mar 13:37:27 13:42:32 60° 259° (W) 13:47:37 437.125/150
50 SAT 01 Mar 13:46:53 13:49:31 21° 289° (WNW) 13:52:09 437.505
BEESAT 3 01 Mar 13:47:41 13:50:46 21° 52° (NE) 13:53:50 437.485
AO-85 01 Mar 13:48:38 13:51:30 19° 248° (WSW) 13:54:26 145.980
ITAMSAT 1 01 Mar 14:21:53 14:26:29 33° 69° (ENE) 14:31:07 435.822/435.867
PCSat 01 Mar 14:33:00 14:37:20 25° 107° (ESE) 14:41:43 145.827
BEESAT 2 01 Mar 14:36:03 14:39:34 27° 54° (NE) 14:43:02 435.950
RS-15 01 Mar 14:42:03 14:46:33 13° 95° (E) 14:51:06 29.354- 29.394
ISS 01 Mar 14:43:41 14:46:13 21° 230° (SW) 14:48:45 437.550
DX 1 01 Mar 14:47:33 14:49:02 12° 295° (WNW) 14:50:31 434.975-435.025
UKube-1 01 Mar 14:49:14 14:51:41 15° 294° (WNW) 14:54:08 .
MOZHAYETS 4 01 Mar 14:50:59 14:51:19 10° 91° (E) 14:51:39
Tancredo 1 01 Mar 14:58:10 14:59:49 13° 233° (SW) 15:01:28 437.200
Gurwin Techsat 1B 01 Mar 15:01:59 15:05:28 18° 267° (W) 15:08:58 435.225
ITUPSAT 1 01 Mar 15:04:50 15:09:27 46° 100° (E) 15:14:01 437.325
BEESAT 01 Mar 15:08:10 15:12:50 51° 100° (E) 15:17:28 436.000
AO-7 01 Mar 15:22:47 15:31:10 87° 250° (WSW) 15:39:35 .
BEESAT 3 01 Mar 15:24:53 15:28:22 29° 248° (WSW) 15:31:50 437.485
NO-84 01 Mar 15:26:19 15:29:18 72° 130° (SE) 15:32:32 435.350 FM
ITAMSAT 1 01 Mar 16:01:38 16:05:55 26° 264° (W) 16:10:14 435.822/435.867
BEESAT 2 01 Mar 16:14:03 16:17:10 21° 249° (WSW) 16:20:14 435.950
PCSat 01 Mar 16:15:28 16:20:29 38° 303° (WNW) 16:25:32 145.827
KKS-1 01 Mar 16:20:54 16:24:38 25° 97° (E) 16:28:20 437.445
MOZHAYETS 4 01 Mar 16:24:17 16:28:50 63° 285° (WNW) 16:33:19
STARS 01 Mar 16:41:58 16:45:05 19° 95° (E) 16:48:11 437.465
ITUPSAT 1 01 Mar 16:43:54 16:46:51 17° 295° (WNW) 16:49:49 437.325
RS-15 01 Mar 16:44:56 16:56:38 71° 114° (ESE) 17:08:51 29.354- 29.394
BEESAT 01 Mar 16:47:29 16:50:08 15° 295° (WNW) 16:52:46 436.000
LilacSat-2 01 Mar 16:59:57 17:01:55 14° 68° (ENE) 17:03:52 437.200
NO-84 01 Mar 17:06:11 17:07:23 12° 331° (NNW) 17:08:37 435.350 FM
M-CUBED/EXP-1 PRIME 01 Mar 17:08:35 17:10:31 13° 99° (E) 17:12:30 437.505
DOVE 4 01 Mar 17:19:46 17:23:15 27° 71° (ENE) 17:26:48 437.250
AO-7 01 Mar 17:20:38 17:24:50 15° 268° (W) 17:29:03 .
KAITUO 1B 01 Mar 17:35:45 17:39:02 28° 73° (ENE) 17:42:21 145.475/437.950
CUBESAT XI-V 01 Mar 17:36:30 17:41:05 69° 284° (WNW) 17:45:38 437.345
CUTE-I 01 Mar 17:43:16 17:48:22 49° 72° (ENE) 17:53:31 437.470
XW-2F 01 Mar 17:48:12 17:51:55 51° 76° (ENE) 17:55:40 145.980 - 146.000
XW-2D 01 Mar 17:55:46 17:59:36 71° 76° (ENE) 18:03:27 145.860 - 145.880
KKS-1 01 Mar 17:57:24 18:01:04 25° 291° (WNW) 18:04:43 437.445
XW-2B 01 Mar 18:00:56 18:04:46 80° 78° (ENE) 18:08:38 145.730 - 145.750
NUDT-PHONESAT 01 Mar 18:04:09 18:07:54 70° 76° (ENE) 18:11:41 437.300
XW-2C 01 Mar 18:09:47 18:13:38 76° 260° (W) 18:17:30 145.795 - 145.815
STARS 01 Mar 18:17:28 18:21:27 33° 289° (WNW) 18:25:26 437.465
LilacSat-2 01 Mar 18:32:16 18:35:50 36° 262° (W) 18:39:27 437.200
HO-68 01 Mar 18:35:17 18:41:47 39° 66° (ENE) 18:48:17 435.675
M-CUBED/EXP-1 PRIME 01 Mar 18:41:13 18:45:01 44° 290° (WNW) 18:49:06 437.505
CUBEBUG 2 01 Mar 18:42:45 18:44:09 11° 64° (ENE) 18:45:34 437.445
DOVE 4 01 Mar 18:58:00 19:00:58 19° 266° (W) 19:03:57 437.250
RS-15 01 Mar 18:59:23 19:10:07 36° 317° (NW) 19:21:13 29.354- 29.394
CUTE 1.7 + AOD 2 01 Mar 19:06:21 19:10:27 46° 74° (ENE) 19:14:33 437.475
UWE-3 01 Mar 19:08:45 19:11:03 14° 65° (ENE) 19:13:22 435.000/436.395/437.385
KAITUO 1B 01 Mar 19:10:46 19:13:05 15° 266° (W) 19:15:24 145.475/437.950
JUGNU 01 Mar 19:16:58 19:19:33 13° 169° (S) 19:22:08 437.505
ZACube-1 01 Mar 19:20:22 19:20:58 10° 64° (ENE) 19:21:36 437.345
CUTE-I 01 Mar 19:25:06 19:28:38 18° 267° (W) 19:32:12 437.470
AAUSAT CUBESAT 2 01 Mar 19:29:25 19:32:51 26° 71° (ENE) 19:36:17 437.432
XW-2A 01 Mar 19:33:13 19:36:26 41° 261° (W) 19:39:42 145.665 - 145.685
SEEDS 01 Mar 19:54:03 19:58:16 71° 258° (WSW) 20:02:29 437.485
STRAND 1 01 Mar 19:59:44 20:04:55 83° 103° (ESE) 20:10:02 437.568
AO-73 01 Mar 20:02:16 20:06:06 28° 70° (ENE) 20:10:00 145.935
Oscar 11 01 Mar 20:03:05 20:06:36 24° 70° (ENE) 20:10:06 .
CUBEBUG 2 01 Mar 20:15:42 20:20:07 63° 260° (W) 20:24:42 437.445
HO-68 01 Mar 20:22:59 20:29:26 36° 262° (W) 20:35:54 435.675
YUBILEINY 01 Mar 20:29:37 20:36:54 29° 72° (ENE) 20:44:06 435.215
SO-50 01 Mar 20:36:32 20:40:41 32° 113° (ESE) 20:44:48 436.795
UWE-3 01 Mar 20:42:38 20:46:59 50° 261° (W) 20:51:28 435.000/436.395/437.385
CUTE 1.7 + AOD 2 01 Mar 20:44:47 20:46:29 12° 268° (W) 20:48:12 437.475
ZACube-1 01 Mar 20:52:08 20:56:35 69° 260° (W) 21:01:09 437.345
JUGNU 01 Mar 21:04:12 21:07:47 17° 180° (S) 21:11:22 437.505
AAUSAT CUBESAT 2 01 Mar 21:05:06 21:08:14 21° 265° (W) 21:11:24 437.432
O/OREOS (USA 219) 01 Mar 21:09:42 21:12:54 19° 101° (E) 21:16:07 437.305
RS-15 01 Mar 21:21:38 21:28:06 15° 350° (N) 21:34:36 29.354- 29.394
PRISM 01 Mar 21:23:10 21:26:26 23° 96° (E) 21:29:42 437.425
TIGRISAT 01 Mar 21:30:14 21:31:37 11° 91° (E) 21:32:58 435.000
UNISAT 6 01 Mar 21:30:55 21:32:57 13° 91° (E) 21:34:57 437.425
AO-73 01 Mar 21:38:44 21:42:16 23° 265° (W) 21:45:52 145.935
Oscar 11 01 Mar 21:39:02 21:42:36 24° 264° (W) 21:46:11 .
STRAND 1 01 Mar 21:42:12 21:43:19 11° 299° (WNW) 21:44:27 437.568
DELFI C3 01 Mar 21:51:59 21:55:51 53° 260° (W) 21:59:42 145.870
NO-84 01 Mar 22:02:44 22:05:31 18° 35° (NE) 22:08:23 435.350 FM
SRMSAT 01 Mar 22:13:28 22:16:38 15° 171° (S) 22:19:48 437.500
SO-50 01 Mar 22:17:14 22:21:08 26° 308° (NW) 22:25:00 436.795
YUBILEINY 01 Mar 22:25:38 22:34:01 54° 270° (W) 22:42:21 435.215
FO-29 01 Mar 22:36:02 22:42:43 38° 95° (E) 22:48:42 435.910
LO-87 01 Mar 22:37:15 22:40:41 53° 75° (ENE) 22:44:09 145.935 - 145.965
ESTCUBE 1 01 Mar 22:47:38 22:51:45 37° 72° (ENE) 22:55:54 437.505/2401.250
O/OREOS (USA 219) 01 Mar 22:48:02 22:52:02 32° 296° (WNW) 22:56:05 437.305
VELOX 1 01 Mar 22:53:11 22:55:10 13° 65° (ENE) 22:57:08 145.980
JUGNU 01 Mar 22:53:13 22:56:00 14° 190° (S) 22:58:48 437.505
PRISM 01 Mar 22:58:21 23:01:36 23° 290° (WNW) 23:04:51 437.425
TIGRISAT 01 Mar 23:04:01 23:08:38 59° 285° (WNW) 23:13:08 435.000
UNISAT 6 01 Mar 23:05:22 23:09:56 53° 286° (WNW) 23:14:23 437.425
NANOSAT C BR1 01 Mar 23:17:09 23:19:07 13° 93° (E) 23:21:03 145.865
POLYITAN 1 01 Mar 23:21:55 23:24:40 17° 94° (E) 23:27:24 437.675
AIST 2D 01 Mar 23:23:54 23:26:59 28° 97° (E) 23:30:03 435.315
PCSat 01 Mar 23:24:40 23:27:05 13° 46° (NE) 23:29:29 145.827
QB50P2 01 Mar 23:24:48 23:27:55 19° 95° (E) 23:31:00 145.880/145.840
RS-15 01 Mar 23:38:58 23:47:46 21° 28° (NNE) 23:56:22 29.354- 29.394
NO-84 01 Mar 23:39:24 23:43:30 68° 229° (SW) 23:47:49 435.350 FM
SPROUT 01 Mar 23:56:09 00:00:17 54° 74° (ENE) 00:04:28 437.525
SRMSAT 02 Mar 00:01:18 00:05:03 17° 182° (S) 00:08:48 437.500
DX 1 02 Mar 00:01:44 00:05:34 32° 71° (ENE) 00:09:26 434.975-435.025
UKube-1 02 Mar 00:03:49 00:07:17 24° 69° (ENE) 00:10:45 .
50 SAT 02 Mar 00:16:49 00:20:18 86° 74° (ENE) 00:23:48 437.505
DUCHIFAT 1 02 Mar 00:20:10 00:24:26 70° 102° (ESE) 00:28:39 145.980
FO-29 02 Mar 00:21:01 00:27:36 36° 294° (WNW) 00:33:33 435.910
ESTCUBE 1 02 Mar 00:25:40 00:28:38 17° 266° (W) 00:31:37 437.505/2401.250
VELOX 1 02 Mar 00:26:54 00:31:08 50° 260° (W) 00:35:24 145.980
EO-79 02 Mar 00:37:09 00:41:23 59° 285° (WNW) 00:45:34 145.935-145.965
NANOSAT C BR1 02 Mar 00:50:57 00:55:01 44° 287° (WNW) 00:59:02 145.865
BUGSAT 1 02 Mar 00:56:07 01:00:19 59° 101° (E) 01:04:30 437.445
POLYITAN 1 02 Mar 00:56:37 01:00:31 34° 288° (WNW) 01:04:23 437.675
AIST 2D 02 Mar 00:58:06 00:59:56 14° 291° (WNW) 01:01:47 435.315
QB50P2 02 Mar 00:59:57 01:03:41 29° 289° (WNW) 01:07:24 145.880/145.840
PCSat 02 Mar 01:05:46 01:11:13 89° 64° (ENE) 01:16:38 145.827
SPROUT 02 Mar 01:35:52 01:36:29 10° 269° (W) 01:37:05 437.525
DX 1 02 Mar 01:38:50 01:41:48 18° 265° (W) 01:44:46 434.975-435.025
UKube-1 02 Mar 01:39:41 01:43:11 24° 264° (W) 01:46:41 .
Gurwin Techsat 1B 02 Mar 01:40:00 01:44:18 25° 95° (E) 01:48:34 435.225
SRMSAT 02 Mar 01:50:54 01:53:27 13° 192° (SSW) 01:56:01 437.500
RS-15 02 Mar 01:51:12 02:03:27 64° 56° (NE) 02:15:04 29.354- 29.394
Oscar 19 02 Mar 01:51:55 01:57:00 61° 101° (ESE) 02:02:04 437.125/150
ITUPSAT 1 02 Mar 02:08:32 02:12:58 38° 71° (ENE) 02:17:25 437.325
BEESAT 02 Mar 02:11:28 02:15:57 42° 72° (ENE) 02:20:29 436.000
AO-85 02 Mar 02:19:44 02:23:12 21° 112° (ESE) 02:26:29 145.980
BUGSAT 1 02 Mar 02:34:15 02:35:07 11° 295° (WNW) 02:36:00 437.445
ITAMSAT 1 02 Mar 02:39:03 02:41:49 14° 93° (E) 02:44:33 435.822/435.867
KKS-1 02 Mar 03:16:51 03:19:41 17° 67° (ENE) 03:22:31 437.445
Gurwin Techsat 1B 02 Mar 03:19:27 03:24:15 35° 290° (WNW) 03:29:03 435.225
MOZHAYETS 4 02 Mar 03:22:34 03:27:13 85° 77° (ENE) 03:31:53
AO-7 02 Mar 03:28:19 03:35:54 38° 99° (E) 03:43:24 .
Oscar 19 02 Mar 03:33:04 03:35:45 14° 296° (WNW) 03:38:27 437.125/150
STARS 02 Mar 03:37:14 03:38:52 12° 65° (ENE) 03:40:31 437.465
ITUPSAT 1 02 Mar 03:47:31 03:50:53 19° 266° (W) 03:54:16 437.325
BEESAT 02 Mar 03:50:47 03:53:53 17° 266° (W) 03:56:59 436.000
AO-85 02 Mar 03:59:15 04:03:24 34° 304° (NW) 04:07:19 145.980
RS-15 02 Mar 04:04:46 04:15:05 35° 256° (WSW) 04:25:02 29.354- 29.394
ITAMSAT 1 02 Mar 04:16:27 04:21:35 58° 287° (WNW) 04:26:41 435.822/435.867
CUBESAT XI-V 02 Mar 04:36:19 04:40:58 80° 78° (ENE) 04:45:37 437.345
KKS-1 02 Mar 04:51:47 04:55:54 38° 261° (W) 05:00:02 437.445
STARS 02 Mar 05:10:25 05:14:41 55° 259° (W) 05:19:01 437.465
BEESAT 3 02 Mar 05:11:12 05:15:04 88° 294° (WNW) 05:19:02 437.485
SO-50 02 Mar 05:11:34 05:14:01 14° 46° (NE) 05:16:26 436.795
AO-7 02 Mar 05:20:56 05:28:37 44° 296° (WNW) 05:36:16 .
DOVE 4 02 Mar 05:22:24 05:24:06 12° 92° (E) 05:25:49 437.250
M-CUBED/EXP-1 PRIME 02 Mar 05:25:11 05:28:22 51° 254° (WSW) 05:31:33 437.505
XW-2B 02 Mar 05:39:46 05:39:56 10° 92° (E) 05:40:05 145.730 - 145.750
ISS 02 Mar 05:44:24 05:47:34 47° 134° (SE) 05:50:46 437.550
XW-2C 02 Mar 05:46:58 05:48:54 13° 93° (E) 05:50:49 145.795 - 145.815
Tancredo 1 02 Mar 05:55:50 05:59:03 72° 135° (SE) 06:02:18 437.200
BEESAT 2 02 Mar 06:01:33 06:05:25 59° 301° (WNW) 06:09:23 435.950
CUTE-I 02 Mar 06:03:51 06:08:13 25° 95° (E) 06:12:34 437.470
LilacSat-2 02 Mar 06:08:31 06:11:49 27° 96° (E) 06:15:04 437.200
KAITUO 1B 02 Mar 06:43:21 06:47:04 62° 100° (E) 06:50:44 145.475/437.950
SO-50 02 Mar 06:50:26 06:54:52 62° 243° (WSW) 06:59:16 436.795
DOVE 4 02 Mar 06:57:10 07:02:03 68° 284° (WNW) 07:07:10 437.250
XW-2F 02 Mar 06:57:19 07:01:04 67° 284° (WNW) 07:04:48 145.980 - 146.000
XW-2A 02 Mar 06:59:18 07:01:06 13° 94° (E) 07:02:52 145.665 - 145.685
XW-2D 02 Mar 07:05:28 07:09:08 48° 285° (WNW) 07:12:46 145.860 - 145.880
XW-2B 02 Mar 07:10:43 07:14:20 42° 286° (WNW) 07:17:54 145.730 - 145.750
NUDT-PHONESAT 02 Mar 07:11:35 07:15:14 51° 285° (WNW) 07:18:50 437.300
STRAND 1 02 Mar 07:12:25 07:17:33 86° 76° (ENE) 07:22:44 437.568
XW-2C 02 Mar 07:19:46 07:23:11 32° 287° (WNW) 07:26:33 145.795 - 145.815
O/OREOS (USA 219) 02 Mar 07:21:43 07:25:28 24° 62° (ENE) 07:29:13 437.305
ISS 02 Mar 07:21:51 07:24:13 18° 330° (NNW) 07:26:36 437.550
Tancredo 1 02 Mar 07:33:46 07:35:37 14° 333° (NNW) 07:37:30 437.200
SEEDS 02 Mar 07:41:26 07:44:44 22° 95° (E) 07:48:00 437.485
LilacSat-2 02 Mar 07:43:23 07:45:52 17° 291° (WNW) 07:48:18 437.200
CUTE-I 02 Mar 07:43:25 07:48:16 36° 290° (WNW) 07:53:07 437.470
HO-68 02 Mar 07:53:03 08:00:01 54° 101° (ESE) 08:06:58 435.675
CUBEBUG 2 02 Mar 08:09:40 08:14:01 35° 97° (E) 08:18:14 437.445
PRISM 02 Mar 08:11:27 08:12:50 11° 66° (ENE) 08:14:13 437.425
CUTE 1.7 + AOD 2 02 Mar 08:29:42 08:33:49 55° 285° (WNW) 08:37:55 437.475
XW-2A 02 Mar 08:30:58 08:33:52 26° 288° (WNW) 08:36:46 145.665 - 145.685
UWE-3 02 Mar 08:35:16 08:39:38 41° 98° (E) 08:43:54 435.000/436.395/437.385
ZACube-1 02 Mar 08:43:57 08:47:51 29° 96° (E) 08:51:40 437.345
FO-29 02 Mar 08:46:32 08:50:19 15° 56° (ENE) 08:54:10 435.910
AAUSAT CUBESAT 2 02 Mar 08:48:53 08:52:59 73° 101° (ESE) 08:57:04 437.432
O/OREOS (USA 219) 02 Mar 09:00:54 09:04:48 27° 257° (WSW) 09:08:40 437.305
SEEDS 02 Mar 09:16:58 09:20:18 24° 289° (WNW) 09:23:38 437.485
YUBILEINY 02 Mar 09:26:36 09:34:23 37° 86° (E) 09:42:08 435.215
Oscar 11 02 Mar 09:28:12 09:32:31 75° 102° (ESE) 09:36:48 .
AO-73 02 Mar 09:28:38 09:33:08 88° 106° (ESE) 09:37:31 145.935
DELFI C3 02 Mar 09:32:32 09:35:36 22° 95° (E) 09:38:41 145.870
HO-68 02 Mar 09:41:35 09:47:17 27° 297° (WNW) 09:53:00 435.675
PRISM 02 Mar 09:43:44 09:47:40 48° 260° (W) 09:51:37 437.425
CUBEBUG 2 02 Mar 09:46:52 09:50:20 20° 292° (WNW) 09:53:44 437.445
TIGRISAT 02 Mar 09:58:59 10:03:31 82° 76° (ENE) 10:08:10 435.000
UNISAT 6 02 Mar 10:00:27 10:04:59 89° 263° (W) 10:09:39 437.425
UWE-3 02 Mar 10:12:45 10:15:42 17° 293° (WNW) 10:18:37 435.000/436.395/437.385
QB50P2 02 Mar 10:16:51 10:17:37 10° 65° (ENE) 10:18:24 145.880/145.840
ZACube-1 02 Mar 10:20:28 10:23:56 22° 291° (WNW) 10:27:20 437.345
FO-29 02 Mar 10:26:43 10:33:56 78° 74° (ENE) 10:41:47 435.910
DELFI C3 02 Mar 11:07:15 11:10:17 22° 289° (WNW) 11:13:18 145.870
DUCHIFAT 1 02 Mar 11:08:58 11:12:44 33° 72° (ENE) 11:16:32 145.980
EO-79 02 Mar 11:26:03 11:30:14 66° 76° (ENE) 11:34:28 145.935-145.965
AIST 2D 02 Mar 11:27:44 11:31:14 59° 259° (W) 11:34:46 435.315
